This is the latest recevied weather packets stored in our database for station/object KB1WCR. If no packets are shown the sender has not sent any weather packets the latest 10 day(s).
| Time | Temp. | Humidity | Pressure | Rain* | Wind** | Luminosity | Snow |
|---|---|---|---|---|---|---|---|
| 1788380080 | 18.89° C | 83% | 1022.3 hPa | 0 mm | - | 162 W/m² | - |
| 1788379780 | 18.89° C | 84% | 1022.3 hPa | 0 mm | - | 199 W/m² | - |
| 1788379475 | 18.89° C | 83% | 1022.2 hPa | 0 mm | - | 187 W/m² | - |
| 1788379170 | 18.89° C | 83% | 1022.1 hPa | 0 mm | - | 195 W/m² | - |
| 1788378866 | 18.89° C | 82% | 1022.5 hPa | 0 mm | - | 179 W/m² | - |
| 1788378560 | 18.89° C | 83% | 1022.7 hPa | 0 mm | - | 150 W/m² | - |
| 1788378259 | 18.89° C | 83% | 1022.5 hPa | 0 mm | - | 208 W/m² | - |
| 1788377955 | 18.89° C | 82% | 1022.7 hPa | 0 mm | - | 311 W/m² | - |
| 1788377651 | 18.89° C | 81% | 1022.9 hPa | 0 mm | - | 263 W/m² | - |
| 1788377349 | 18.89° C | 83% | 1022.8 hPa | 0 mm | - | 291 W/m² | - |
| 1788377049 | 18.89° C | 83% | 1022.8 hPa | 0 mm | - | 224 W/m² | - |
| 1788376748 | 18.89° C | 82% | 1022.7 hPa | 0 mm | - | 282 W/m² | - |
| 1788376444 | 18.33° C | 83% | 1022.8 hPa | 0 mm | - | 240 W/m² | - |
| 1788376138 | 18.33° C | 83% | 1022.8 hPa | 0 mm | - | 193 W/m² | - |
| 1788375833 | 18.33° C | 83% | 1022.8 hPa | 0 mm | - | 166 W/m² | - |
| 1788375529 | 18.33° C | 83% | 1022.8 hPa | 0 mm | - | 170 W/m² | - |
| 1788375225 | 18.89° C | 82% | 1023.1 hPa | 0 mm | - | 170 W/m² | - |
| 1788374920 | 18.33° C | 83% | 1022.9 hPa | 0 mm | - | 173 W/m² | - |
| 1788374615 | 18.89° C | 82% | 1022.9 hPa | 0 mm | - | 184 W/m² | - |
| 1788374310 | 18.89° C | 83% | 1022.8 hPa | 0 mm | - | 197 W/m² | - |
| 1788374007 | 18.89° C | 83% | 1022.9 hPa | 0 mm | - | 190 W/m² | - |
| 1788373702 | 18.89° C | 82% | 1022.9 hPa | 0 mm | - | 187 W/m² | - |
| 1788373399 | 18.89° C | 82% | 1022.9 hPa | 0 mm | - | 197 W/m² | - |
| 1788373095 | 18.89° C | 81% | 1022.9 hPa | 0 mm | - | 204 W/m² | - |
| 1788372790 | 18.89° C | 82% | 1023 hPa | 0 mm | - | 205 W/m² | - |
* Rain latest hour (hover to see other rain measurements)
** Current wind speed in m/s (hover to see current wind gust speed)